Regional Weather Roundup
Issued by NWS

Home | Current Version | Previous Version | Graphics & Text | Print | Product List | Glossary On
Versions: 1 2 3 4 5 6 7 8 9 10 11 12 13 14 15 16 17 18 19 20 21 22 23 24 25 26 27 28 29 30 31 32 33 34 35 36 37 38 39 40 41 42 43 44 45 46 47 48 49 50
686
ASUS44 KJAN 261403
RWRMS

MISSISSIPPI HOURLY WEATHER ROUNDUP
NATIONAL WEATHER SERVICE JACKSON MS
800 AM CST MON JAN 26 2015

NOTE: "FAIR: INDICATES FEW OR NO CLOUDS BELOW 12,000 FEET WITH NO
SIGNIFICANT WEATHER AND/OR OBSTRUCTIONS TO VISIBILITY.

MSZ001>002-007>008-010>013-018>021-025>028-034>036-261500-
NORTHWEST MISSISSIPPI

CITY           SKY/WX    TMP DP  RH WIND       PRES   REMARKS
CLARKSDALE     CLOUDY    39  32  75 NW5       30.14R
CLEVELAND      CLOUDY    40  35  82 N10       30.13S WCI  34
GREENWOOD      CLOUDY    41  32  70 N10       30.12R
GREENVILLE     CLOUDY    43  34  70 NW8       30.13R
GRENADA        CLOUDY    37  32  81 NW5       30.13R WCI  34
OLIVE BRANCH   MOCLDY    36  34  93 N9        30.08S WCI  29
OXFORD         CLOUDY    37  28  70 N12G17    30.10R WCI  30
TUNICA         CLOUDY    37  32  81 NW10      30.13S WCI  30
$$

MSZ003>006-009-014>017-022>024-029>033-037>039-261500-
NORTHEAST MISSISSIPPI

CITY           SKY/WX    TMP DP  RH WIND       PRES   REMARKS
COLUMBUS AFB   CLOUDY    41  32  71 NW18G26   30.07R
CORINTH        CLOUDY    36  30  80 NW14G24   30.05R WCI  27
GOLDN TRIANGLE CLOUDY    43  34  70 N14       30.05R
STARKVILLE     CLOUDY    41  34  75 NW7       30.08R
TUPELO         CLOUDY    39  31  72 N8        30.07R WCI  33
$$

MSZ040-058-261500-
CENTRAL MISSISSIPPI

CITY           SKY/WX    TMP DP  RH WIND       PRES   REMARKS
JACKSON INTL   CLOUDY    45  35  68 N13       30.10R
JACKSON HAWKNS CLOUDY    44  34  67 N10G21    30.11R
MERIDIAN KEY   CLOUDY    45  35  68 NW10      30.06R
MERIDIAN NAS   CLOUDY    45  34  65 NW16G25   30.06R
RAYMOND        CLOUDY    45  39  81 NW10G18   30.11R
VICKSBURG      CLOUDY    45  33  63 N12G18    30.16R
$$

MSZ059>079-261500-
SOUTH MISSISSIPPI

CITY           SKY/WX    TMP DP  RH WIND       PRES   REMARKS
BROOKHAVEN     FAIR      43  36  75 NW7       30.12R
HATTIESBURG    SUNNY     46  36  68 NW7       30.08R
MCCOMB         SUNNY     44  33  65 NW10      30.11R
NATCHEZ        SUNNY     43  32  65 NW8       30.15R
PINE BELT      PTSUNNY   45  34  65 NW6       30.08R
$$

MSZ080>082-261500-
COASTAL MISSISSIPPI

CITY           SKY/WX    TMP DP  RH WIND       PRES   REMARKS
BAY ST LOUIS   SUNNY     45  32  61 NW5       30.08R
BILOXI         SUNNY     46  37  69 NW9       30.07R
PASCAGOULA     SUNNY     47  35  63 VRB5      30.06R
GULFPORT       SUNNY     45  35  68 NW9       30.07R
$$



USA.gov is the U.S. government's official web portal to all federal, state and local government web resources and services.